CW5988 Weather Reports


time (UTC)temp
F
wind
direction
speed
knots
gust
knots
rain 1hr
in
rain 24hr
in
rain mn
in
humidity
%
barometer
mb
20260507125939 53 270 3.5 9.6 0.00 0.00 0.00 86 1018.8
20260507125426 53 285 4.3 8.7 0.00 0.00 0.00 86 1018.7
20260507124936 53 289 2.6 6.1 0.00 0.00 0.00 86 1018.8
20260507124456 53 258 1.7 6.1 0.00 0.00 0.00 86 1018.8
20260507123924 53 360 2.6 7.0 0.00 0.00 0.00 86 1018.8
20260507123453 53 282 2.6 7.0 0.00 0.00 0.00 86 1018.8
20260507122921 53 245 3.5 10.4 0.00 0.00 0.00 86 1018.7
20260507122423 53 308 6.1 10.4 0.00 0.00 0.00 86 1018.8
20260507121933 53 289 3.5 7.8 0.00 0.00 0.00 86 1018.8
20260507121422 53 278 4.3 7.8 0.00 0.00 0.00 86 1018.7
20260507120931 53 317 4.3 7.0 0.00 0.00 0.00 86 1018.7
20260507120438 53 268 3.5 7.0 0.00 0.00 0.00 86 1018.7
20260507115924 53 275 3.5 7.0 0.00 0.00 0.00 86 1018.7
20260507115431 53 244 3.5 9.6 0.00 0.00 0.00 86 1018.8
20260507114939 53 290 3.5 10.4 0.00 0.00 0.00 86 1018.9
20260507114421 54 278 6.1 10.4 0.00 0.00 0.00 86 1018.9
20260507113928 54 259 1.7 7.8 0.00 0.00 0.00 86 1018.9
20260507113434 54 359 2.6 9.6 0.00 0.00 0.00 86 1018.9
20260507112949 54 276 4.3 9.6 0.00 0.00 0.00 86 1018.9
20260507112435 54 273 1.7 9.6 0.00 0.00 0.00 86 1019.0
20260507111922 54 275 2.6 6.1 0.00 0.00 0.00 86 1019.0
20260507111453 54 342 1.7 5.2 0.00 0.00 0.00 86 1018.9
20260507110936 54 268 0.9 4.3 0.00 0.00 0.00 86 1019.0
20260507110420 54 88 1.7 6.1 0.00 0.00 0.00 86 1018.9
20260507105926 54 222 2.6 6.1 0.00 0.00 0.00 86 1019.0
20260507105434 54 343 3.5 8.7 0.00 0.00 0.00 86 1019.0
20260507104941 54 1 3.5 8.7 0.00 0.00 0.00 86 1018.9
20260507104449 54 359 3.5 8.7 0.00 0.00 0.00 86 1018.9
20260507103959 54 228 3.5 8.7 0.00 0.00 0.00 86 1019.0
20260507103446 54 222 3.5 7.8 0.00 0.00 0.00 86 1019.0
20260507102930 54 322 1.7 9.6 0.00 0.00 0.00 86 1019.1
20260507102437 54 270 2.6 9.6 0.00 0.00 0.00 86 1019.1
20260507101946 54 316 2.6 7.0 0.00 0.00 0.00 86 1019.1
20260507101453 53 27 2.6 7.0 0.00 0.00 0.00 86 1019.1
20260507100935 53 305 1.7 5.2 0.00 0.00 0.00 86 1019.0
20260507100451 53 107 1.7 7.8 0.00 0.00 0.00 86 1019.0
20260507095936 53 245 4.3 7.8 0.00 0.00 0.00 86 1018.9
20260507095421 54 268 3.5 6.1 0.00 0.00 0.00 86 1018.9
20260507094927 53 285 2.6 6.1 0.00 0.00 0.00 86 1018.9
20260507094434 53 292 0.9 9.6 0.00 0.00 0.00 86 1019.0
20260507093921 53 178 4.3 9.6 0.00 0.00 0.00 86 1018.9
20260507093444 54 272 4.3 11.3 0.00 0.00 0.00 86 1018.9
20260507092959 54 287 3.5 11.3 0.00 0.00 0.00 86 1018.9
20260507092425 54 294 3.5 12.2 0.00 0.00 0.00 86 1018.9
20260507091934 54 273 5.2 14.8 0.00 0.00 0.00 86 1018.8
20260507091418 54 271 6.1 14.8 0.00 0.00 0.00 86 1018.9
20260507090925 54 286 4.3 8.7 0.00 0.00 0.00 86 1019.0
20260507090432 54 224 5.2 13.0 0.00 0.00 0.00 86 1018.9
20260507085936 54 285 7.0 13.0 0.00 0.00 0.00 86 1019.0
20260507085439 54 313 3.5 12.2 0.00 0.00 0.00 86 1018.9
20260507084955 54 264 3.5 10.4 0.00 0.00 0.00 86 1019.0
20260507084437 54 232 4.3 8.7 0.00 0.00 0.00 86 1019.0
20260507083924 54 290 4.3 11.3 0.00 0.00 0.00 86 1019.2
20260507083429 54 275 5.2 11.3 0.00 0.00 0.00 86 1019.2
20260507082933 54 292 3.5 11.3 0.00 0.00 0.00 86 1019.3
20260507082434 54 195 5.2 11.3 0.00 0.00 0.00 86 1019.4
20260507081919 54 313 3.5 6.1 0.00 0.00 0.00 86 1019.5
20260507081428 54 34 0.9 4.3 0.00 0.00 0.00 86 1019.5
20260507080937 54 268 1.7 5.2 0.00 0.00 0.00 86 1019.5
20260507080422 54 360 2.6 7.0 0.00 0.00 0.00 86 1019.5
20260507075949 54 177 0.9 7.0 0.00 0.00 0.00 86 1019.5
20260507075430 54 216 4.3 7.0 0.00 0.00 0.00 86 1019.4
20260507074933 54 292 4.3 7.0 0.00 0.00 0.00 86 1019.5
20260507074420 54 298 3.5 7.0 0.00 0.00 0.00 86 1019.5
20260507073927 54 116 0.9 5.2 0.00 0.00 0.00 86 1019.5
20260507073434 54 301 1.7 5.2 0.00 0.00 0.00 86 1019.4
20260507072922 54 151 2.6 6.1 0.00 0.00 0.00 86 1019.5
20260507072428 54 45 1.7 6.1 0.00 0.00 0.00 87 1019.5
20260507071935 54 237 2.6 6.1 0.00 0.00 0.00 87 1019.5
20260507071420 54 215 1.7 7.8 0.00 0.00 0.00 87 1019.4
20260507070922 54 282 3.5 7.0 0.00 0.00 0.00 86 1019.4
20260507070429 54 278 2.6 13.0 0.00 0.00 0.00 86 1019.4
20260507065938 54 360 1.7 13.0 0.00 0.00 0.00 86 1019.4
20260507065425 54 257 4.3 8.7 0.00 0.00 0.00 86 1019.4
20260507064934 54 138 3.5 13.0 0.00 0.00 0.00 87 1019.3
20260507064420 54 230 5.2 16.5 0.00 0.00 0.00 87 1019.3
20260507063928 54 257 7.8 16.5 0.00 0.00 0.00 87 1019.3
20260507063431 54 247 6.1 12.2 0.00 0.00 0.00 87 1019.3
20260507062937 54 196 5.2 17.4 0.00 0.00 0.00 87 1019.3
20260507062453 54 284 9.6 17.4 0.00 0.00 0.00 87 1019.1
20260507061920 54 296 7.0 14.8 0.00 0.00 0.00 87 1019.2
20260507061445 54 268 8.7 17.4 0.00 0.00 0.00 87 1019.1
20260507060952 54 264 11.3 19.1 0.00 0.00 0.00 86 1019.2
20260507060435 54 257 7.0 20.9 0.00 0.00 0.00 86 1019.2
20260507055921 54 268 12.2 20.9 0.00 0.00 0.00 86 1019.0
20260507055426 54 264 13.0 20.9 0.00 0.00 0.00 86 1019.0
20260507054933 54 295 7.8 16.5 0.00 0.00 0.00 86 1019.0
20260507054421 55 270 9.6 17.4 0.00 0.00 0.00 86 1019.0
20260507053929 55 268 10.4 18.2 0.00 0.00 0.00 86 1019.0
20260507053438 55 275 10.4 18.2 0.00 0.00 0.00 86 1019.1
20260507052925 55 273 10.4 17.4 0.00 0.00 0.00 86 1019.2
20260507052429 55 273 8.7 18.2 0.00 0.00 0.00 86 1019.1
20260507051936 55 256 8.7 16.5 0.00 0.00 0.00 86 1019.2
20260507051423 55 285 9.6 19.1 0.00 0.00 0.00 86 1019.2
20260507050959 55 268 8.7 19.1 0.00 0.00 0.00 86 1019.2
20260507050425 55 287 9.6 23.5 0.00 0.00 0.00 86 1019.1
20260507045930 55 265 13.0 23.5 0.00 0.00 0.00 86 1019.2
20260507045438 55 307 13.0 20.9 0.00 0.00 0.00 86 1019.2
20260507044923 55 280 12.2 23.5 0.00 0.00 0.00 86 1019.1
20260507044451 55 278 15.6 23.5 0.00 0.00 0.00 86 1019.2
20260507043936 55 282 15.6 24.3 0.00 0.00 0.00 86 1019.0
20260507043422 55 275 16.5 24.3 0.00 0.00 0.00 86 1019.0
20260507042930 55 256 13.9 23.5 0.00 0.00 0.00 85 1019.0
20260507042438 55 282 12.2 22.6 0.00 0.00 0.00 85 1018.8
20260507041925 55 256 12.2 26.9 0.00 0.00 0.00 85 1018.8
20260507041425 55 252 14.8 26.9 0.00 0.00 0.00 85 1018.8
20260507040933 55 283 17.4 23.5 0.00 0.00 0.00 85 1018.7
20260507040436 55 273 12.2 25.2 0.00 0.00 0.00 85 1018.7
20260507035950 55 233 13.0 23.5 0.00 0.00 0.00 85 1018.8
20260507035436 55 297 13.9 24.3 0.00 0.00 0.00 85 1018.8
20260507034943 55 283 14.8 24.3 0.00 0.00 0.00 85 1018.8
20260507034445 55 270 13.0 23.5 0.00 0.00 0.00 85 1018.8
20260507033929 55 275 13.9 23.5 0.00 0.00 0.00 85 1018.7
20260507033433 55 275 14.8 24.3 0.00 0.00 0.00 85 1018.6
20260507032938 55 301 15.6 24.3 0.00 0.00 0.00 85 1018.4
20260507032425 56 266 12.2 24.3 0.00 0.00 0.00 85 1018.4
20260507031933 56 273 14.8 26.9 0.00 0.00 0.00 84 1018.3
20260507031419 56 282 15.6 26.9 0.00 0.00 0.00 84 1018.3
20260507030926 56 272 16.5 24.3 0.00 0.00 0.00 84 1018.2
20260507030427 56 268 15.6 25.2 0.00 0.00 0.00 84 1018.3
20260507025933 56 283 18.2 25.2 0.00 0.00 0.00 84 1018.3
20260507025420 56 282 15.6 25.2 0.00 0.00 0.00 83 1018.3
20260507024928 56 290 14.8 26.1 0.00 0.00 0.00 83 1018.3
20260507024435 56 263 16.5 26.1 0.00 0.00 0.00 83 1018.1
20260507023922 56 259 14.8 26.1 0.00 0.00 0.00 83 1018.1
20260507023429 56 251 13.0 26.1 0.00 0.00 0.00 83 1018.2
20260507022934 57 297 13.0 24.3 0.00 0.00 0.00 82 1018.0
20260507022440 57 289 13.0 29.5 0.00 0.00 0.00 82 1018.0
20260507021955 57 290 15.6 29.5 0.00 0.00 0.00 82 1018.2
20260507021420 57 271 14.8 24.3 0.00 0.00 0.00 82 1018.1
20260507020927 57 278 16.5 24.3 0.00 0.00 0.00 81 1018.1
20260507020435 57 294 13.0 26.1 0.00 0.00 0.00 81 1018.1
20260507015920 58 280 14.8 26.1 0.00 0.00 0.00 80 1018.1
20260507015426 58 280 11.3 23.5 0.00 0.00 0.00 80 1018.1
20260507014928 58 278 15.6 23.5 0.00 0.00 0.00 80 1018.1
20260507014436 58 280 11.3 24.3 0.00 0.00 0.00 80 1018.0
20260507013951 58 278 14.8 23.5 0.00 0.00 0.00 79 1018.1
20260507013437 59 232 13.0 25.2 0.00 0.00 0.00 79 1018.0
20260507012939 59 263 16.5 26.9 0.00 0.00 0.00 79 1018.0
20260507012425 59 256 14.8 26.9 0.00 0.00 0.00 79 1017.9
20260507011929 59 282 11.3 24.3 0.00 0.00 0.00 79 1018.2
20260507011436 59 213 12.2 26.9 0.00 0.00 0.00 79 1018.2
20260507010923 59 276 18.2 26.9 0.00 0.00 0.00 78 1018.3
20260507010432 60 265 14.8 22.6 0.00 0.00 0.00 78 1018.3
20260507005938 60 280 13.0 22.6 0.00 0.00 0.00 77 1018.3
20260507005426 60 251 11.3 20.0 0.00 0.00 0.00 78 1018.3
20260507004932 60 280 12.2 23.5 0.00 0.00 0.00 78 1018.3
20260507004420 60 257 14.8 23.5 0.00 0.00 0.00 78 1018.2
20260507003925 60 261 12.2 23.5 0.00 0.00 0.00 78 1018.3
20260507003459 60 285 13.0 22.6 0.00 0.00 0.00 77 1018.3
20260507002925 60 273 12.2 22.6 0.00 0.00 0.00 77 1018.3
20260507002432 60 279 13.9 22.6 0.00 0.00 0.00 77 1018.3
20260507001938 61 297 9.6 20.0 0.00 0.00 0.00 77 1018.3
20260507001456 61 282 9.6 19.1 0.00 0.00 0.00 77 1018.4
20260507000920 61 287 12.2 19.1 0.00 0.00 0.00 77 1018.4
20260507000423 60 280 10.4 20.9 0.00 0.00 0.00 77 1018.4
20260506235927 60 265 13.9 21.7 0.00 0.00 0.00 77 1018.5
20260506235435 60 301 12.2 25.2 0.00 0.00 0.00 78 1018.4
20260506234922 60 278 13.9 25.2 0.00 0.00 0.00 78 1018.5
20260506234458 61 295 14.8 22.6 0.00 0.00 0.00 77 1018.4
20260506233924 60 261 12.2 24.3 0.00 0.00 0.00 78 1018.5
20260506233430 60 264 16.5 25.2 0.00 0.00 0.00 78 1018.7
20260506232933 60 270 16.5 25.2 0.00 0.00 0.00 77 1018.6
20260506232442 61 270 13.9 24.3 0.00 0.00 0.00 77 1018.6
20260506231927 61 295 16.5 24.3 0.00 0.00 0.00 77 1018.6
20260506231435 61 263 16.5 24.3 0.00 0.00 0.00 76 1018.6
20260506230923 61 283 13.0 24.3 0.00 0.00 0.00 76 1018.6
20260506230429 61 280 13.0 24.3 0.00 0.00 0.00 76 1018.8
20260506225933 62 256 12.2 21.7 0.00 0.00 0.00 76 1018.8
20260506225436 61 285 13.9 23.5 0.00 0.00 0.00 77 1018.8
20260506224921 61 238 13.0 26.9 0.00 0.00 0.00 76 1019.0
20260506224449 62 269 13.0 26.9 0.00 0.00 0.00 76 1019.0
20260506223934 62 259 10.4 22.6 0.00 0.00 0.00 77 1019.1
20260506223419 61 289 14.8 24.3 0.00 0.00 0.00 76 1019.1
20260506222925 61 291 9.6 24.3 0.00 0.00 0.00 77 1019.2
20260506222431 61 329 13.9 23.5 0.00 0.00 0.00 76 1019.2
20260506221935 62 268 10.4 23.5 0.00 0.00 0.00 76 1019.3
20260506221450 62 55 10.4 20.9 0.00 0.00 0.00 76 1019.5
20260506220937 62 285 12.2 25.2 0.00 0.00 0.00 76 1019.6
20260506220445 62 301 14.8 25.2 0.00 0.00 0.00 75 1019.6
20260506215951 62 268 13.9 20.0 0.00 0.00 0.00 75 1019.6
20260506215419 63 280 10.4 20.0 0.00 0.00 0.00 75 1019.7
20260506214921 62 283 12.2 24.3 0.00 0.00 0.00 75 1019.8
20260506214427 62 273 11.3 24.3 0.00 0.00 0.00 75 1019.7
20260506213935 62 299 13.0 20.9 0.00 0.00 0.00 74 1019.8
20260506213436 63 258 13.0 20.9 0.00 0.00 0.00 74 1019.8
20260506212922 63 270 10.4 20.0 0.00 0.00 0.00 74 1019.8
20260506212428 63 297 9.6 20.0 0.00 0.00 0.00 74 1019.8
20260506211936 63 282 11.3 19.1 0.00 0.00 0.00 74 1019.8
20260506211439 63 221 12.2 19.1 0.00 0.00 0.00 74 1019.8
20260506210927 64 271 8.7 17.4 0.00 0.00 0.00 74 1019.9
20260506210433 64 264 10.4 16.5 0.00 0.00 0.00 74 1019.9
20260506205919 63 283 8.7 16.5 0.00 0.00 0.00 74 1019.9
20260506205428 63 292 9.6 15.6 0.00 0.00 0.00 74 1019.9
20260506204936 63 292 11.3 16.5 0.00 0.00 0.00 74 1020.1
20260506204422 63 275 11.3 16.5 0.00 0.00 0.00 74 1020.0
20260506203928 63 268 9.6 15.6 0.00 0.00 0.00 74 1020.0
20260506203432 63 237 10.4 16.5 0.00 0.00 0.00 74 1020.0
20260506202934 63 278 11.3 16.5 0.00 0.00 0.00 74 1020.1
20260506202421 63 287 9.6 16.5 0.00 0.00 0.00 74 1020.1
20260506201927 64 261 9.6 14.8 0.00 0.00 0.00 73 1020.2
20260506201433 64 268 7.8 14.8 0.00 0.00 0.00 73 1020.2
20260506200921 64 295 10.4 14.8 0.00 0.00 0.00 73 1020.2
20260506200447 64 280 8.7 13.9 0.00 0.00 0.00 72 1020.3
20260506195927 65 329 8.7 12.2 0.00 0.00 0.00 72 1020.3
20260506195433 65 273 8.7 13.9 0.00 0.00 0.00 72 1020.4
20260506194921 65 307 7.0 13.9 0.00 0.00 0.00 72 1020.4
20260506194426 64 273 7.8 13.0 0.00 0.00 0.00 72 1020.4
20260506193932 64 299 8.7 13.0 0.00 0.00 0.00 71 1020.5
20260506193440 65 280 6.1 13.0 0.00 0.00 0.00 72 1020.4
20260506192956 65 252 6.1 13.0 0.00 0.00 0.00 71 1020.4
20260506192436 65 297 6.1 11.3 0.00 0.00 0.00 72 1020.5
20260506191923 65 257 7.0 11.3 0.00 0.00 0.00 71 1020.6
20260506191429 64 254 4.3 10.4 0.00 0.00 0.00 72 1020.6
20260506190936 64 274 6.1 10.4 0.00 0.00 0.00 72 1020.6
20260506190443 64 275 7.0 10.4 0.00 0.00 0.00 71 1020.6
20260506185920 65 316 6.1 10.4 0.00 0.00 0.00 71 1020.6
20260506185426 65 134 4.3 8.7 0.00 0.00 0.00 72 1020.6
20260506184928 64 251 4.3 10.4 0.00 0.00 0.00 72 1020.6
20260506184436 64 302 6.1 10.4 0.00 0.00 0.00 73 1020.6
20260506183952 63 284 4.3 10.4 0.00 0.00 0.00 73 1020.7
20260506183438 64 280 5.2 10.4 0.00 0.00 0.00 73 1020.7
20260506182923 63 280 4.3 9.6 0.00 0.00 0.00 74 1020.6
20260506182448 63 246 3.5 7.8 0.00 0.00 0.00 74 1020.6
20260506181935 62 297 3.5 7.8 0.00 0.00 0.00 75 1020.6
20260506181437 62 212 3.5 7.8 0.00 0.00 0.00 75 1020.6
20260506180925 62 306 4.3 9.6 0.00 0.00 0.00 74 1020.7
20260506180434 62 270 5.2 9.6 0.00 0.00 0.00 74 1020.6
20260506175921 62 300 4.3 8.7 0.00 0.00 0.00 73 1020.6
20260506175426 63 301 4.3 8.7 0.00 0.00 0.00 73 1020.6
20260506174934 63 7 0.9 5.2 0.00 0.00 0.00 74 1020.6
20260506174420 62 256 2.6 6.1 0.00 0.00 0.00 73 1020.6
20260506173926 62 341 1.7 6.1 0.00 0.00 0.00 74 1020.6
20260506173430 62 345 4.3 7.0 0.00 0.00 0.00 74 1020.6
20260506172936 62 194 2.6 7.8 0.00 0.00 0.00 74 1020.6
20260506172422 62 282 3.5 7.8 0.00 0.00 0.00 74 1020.7
20260506171928 61 262 2.6 6.1 0.00 0.00 0.00 75 1020.7
20260506171431 61 275 2.6 7.0 0.00 0.00 0.00 74 1020.7
20260506170919 62 316 4.3 7.0 0.00 0.00 0.00 74 1020.8
20260506170425 62 192 1.7 6.1 0.00 0.00 0.00 74 1020.7
20260506165946 61 40 3.5 6.1 0.00 0.00 0.00 74 1020.8
20260506165501 61 62 4.3 6.1 0.00 0.00 0.00 75 1020.7
20260506164955 61 88 1.7 7.0 0.00 0.00 0.00 75 1020.7
20260506164440 61 69 3.5 7.0 0.00 0.00 0.00 74 1020.7
20260506163955 61 320 3.5 8.7 0.00 0.00 0.00 74 1020.7
20260506163420 62 351 4.3 8.7 0.00 0.00 0.00 73 1020.6
20260506162940 62 219 0.9 5.2 0.00 0.00 0.00 74 1020.7
20260506162445 62 306 3.5 5.2 0.00 0.00 0.00 74 1020.7
20260506161930 61 167 1.7 7.0 0.00 0.00 0.00 75 1020.6
20260506161435 61 196 1.7 7.0 0.00 0.00 0.00 75 1020.8
20260506160921 60 275 2.6 4.3 0.00 0.00 0.00 75 1020.7
20260506160426 60 309 2.6 4.3 0.00 0.00 0.00 76 1020.7
20260506155926 60 279 2.6 6.1 0.00 0.00 0.00 76 1020.7
20260506155432 60 325 2.6 6.1 0.00 0.00 0.00 76 1020.7
20260506154938 59 289 2.6 4.3 0.00 0.00 0.00 76 1020.7
20260506154423 59 301 1.7 5.2 0.00 0.00 0.00 76 1020.8
20260506153951 60 314 2.6 5.2 0.00 0.00 0.00 77 1020.7
20260506153436 60 286 2.6 4.3 0.00 0.00 0.00 77 1020.7
20260506152941 59 261 2.6 4.3 0.00 0.00 0.00 77 1020.6
20260506152422 59 295 1.7 5.2 0.00 0.00 0.00 77 1020.7
20260506151930 59 323 2.6 6.1 0.00 0.00 0.00 77 1020.7
20260506151437 59 328 3.5 6.1 0.00 0.00 0.00 78 1020.6
20260506150925 59 313 1.7 3.5 0.00 0.00 0.00 79 1020.6
20260506150458 58 177 1.7 4.3 0.00 0.00 0.00 79 1020.6
20260506145942 58 222 0.9 6.1 0.00 0.00 0.00 79 1020.6
20260506145424 58 271 3.5 7.0 0.00 0.00 0.00 79 1020.6
20260506144930 58 302 3.5 7.0 0.00 0.00 0.00 80 1020.5
20260506144435 57 313 1.7 6.1 0.00 0.00 0.00 80 1020.4
20260506143919 57 276 3.5 6.1 0.00 0.00 0.00 80 1020.5
20260506143425 57 261 3.5 6.1 0.00 0.00 0.00 80 1020.4
20260506142932 57 313 2.6 7.0 0.00 0.00 0.00 80 1020.3
20260506142419 57 295 3.5 7.0 0.00 0.00 0.00 80 1020.3
20260506141934 57 34 1.7 4.3 0.00 0.00 0.00 80 1020.3
20260506141420 57 309 2.6 3.5 0.00 0.00 0.00 80 1020.2
20260506140945 57 282 1.7 3.5 0.00 0.00 0.00 80 1020.2
20260506140429 57 235 2.6 5.2 0.00 0.00 0.00 80 1020.2
20260506135935 56 259 2.6 5.2 0.00 0.00 0.00 80 1020.1
20260506135422 56 289 2.6 4.3 0.00 0.00 0.00 81 1020.0
20260506134946 56 222 1.7 3.5 0.00 0.00 0.00 81 1020.0
20260506134433 56 185 0.9 3.5 0.00 0.00 0.00 81 1020.0
20260506133919 56 313 1.7 5.2 0.00 0.00 0.00 81 1019.9
20260506133426 56 295 2.6 5.2 0.00 0.00 0.00 81 1020.0
20260506132934 56 285 3.5 6.1 0.00 0.00 0.00 81 1019.9
20260506132420 56 247 2.6 6.1 0.00 0.00 0.00 81 1019.9
20260506131927 56 289 2.6 5.2 0.00 0.00 0.00 81 1019.9
20260506131435 56 290 2.6 5.2 0.00 0.00 0.00 81 1019.8
20260506130920 56 299 2.6 6.1 0.00 0.00 0.00 81 1019.7
20260506130422 56 258 1.7 6.1 0.00 0.00 0.00 82 1019.7